Wind_Speed
21 22 22 22 22 22 23 24 25 24 23 21 22 22 22 23 24 24 25 25 25 26 28 30 31 31 33 35 36 37 38 39 39 39 40 40 40 40 40 41 41 41 41 42
21 20 20 20 19 20 22 23 23 23 22 22 22 22 23 23 24 26 26 26 25 25 26 28 29 30 31 33 34 35 36 37 38 38 38 39 39 40 40 40 41 41 41 41
21 20 20 20 18 19 20 21 22 23 22 21 22 22 22 22 23 25 25 25 26 26 26 28 28 29 30 31 32 33 34 35 36 37 37 37 38 39 39 39 40 41 41 40
22 21 21 20 19 20 20 20 21 22 22 21 21 21 22 22 22 23 24 25 26 27 27 28 28 28 29 30 32 32 33 35 36 36 37 37 37 37 37 38 40 40 41 41
23 23 22 20 20 21 21 20 20 21 22 22 22 21 21 22 22 23 24 25 26 27 28 28 28 28 29 30 31 32 33 34 34 35 36 37 37 37 38 39 38 39 40 41
23 23 23 21 21 22 22 21 20 21 21 22 21 21 21 22 23 23 24 25 25 27 28 29 29 29 29 31 31 32 33 33 34 35 37 38 38 39 39 39 39 39 40 41
22 22 22 22 22 22 22 22 21 22 22 22 21 21 21 22 23 23 24 25 25 26 28 29 30 30 29 30 31 31 31 33 34 35 36 38 39 40 40 39 40 41 41 41
21 22 21 21 22 23 23 23 23 23 23 23 23 22 22 23 24 24 25 25 26 27 28 28 29 29 29 30 30 31 31 32 33 34 35 37 39 39 39 39 40 41 41 40
22 22 23 23 23 24 24 25 25 25 25 24 25 25 24 24 25 25 26 26 25 26 26 27 28 28 29 29 29 30 31 32 33 33 34 36 36 36 37 38 38 39 39 38
23 23 24 25 25 25 25 25 25 25 25 25 25 25 25 24 24 25 25 26 26 26 26 27 28 28 28 28 29 29 30 31 32 33 34 34 35 36 36 37 37 37 37 36
23 24 25 25 25 25 25 24 24 24 24 25 25 25 25 24 24 25 25 26 26 26 26 26 27 27 27 27 28 29 31 31 32 33 34 34 35 36 36 36 36 36 35 35
23 24 25 25 25 25 25 24 24 23 24 24 25 25 24 24 25 25 25 25 25 25 25 26 26 27 27 27 28 29 31 31 32 33 34 34 34 34 34 34 34 34 34 33
24 24 25 25 25 25 24 24 24 24 23 24 25 25 24 24 23 24 24 24 24 23 24 24 25 26 27 28 29 30 30 30 31 31 31 31 31 30 31 31 31 31 31 31
25 25 25 25 24 24 24 24 24 24 24 23 24 24 23 22 22 23 23 23 23 24 24 24 25 26 27 28 28 29 29 28 28 28 27 27 27 28 28 28 28 28 28 28
24 24 24 23 22 22 23 23 24 23 23 22 22 22 21 20 20 21 21 22 22 23 24 24 24 26 27 28 28 28 27 26 25 25 25 26 25 26 26 26 26 26 26 26
24 24 23 23 22 22 22 22 23 22 22 22 22 21 20 20 20 20 21 21 22 22 23 24 24 24 25 26 25 25 25 24 25 25 24 25 25 25 25 25 25 25 25 26
24 23 22 22 22 21 22 22 22 22 21 21 20 20 19 19 20 20 20 21 22 22 23 24 24 24 23 23 22 22 22 23 23 23 23 23 23 22 22 22 23 23 24 24
22 22 21 21 21 21 21 21 21 20 20 19 19 19 19 19 19 19 19 19 20 21 22 22 22 22 21 22 22 22 22 21 22 22 22 22 22 22 22 21 22 22 23 23
21 21 21 20 21 21 21 20 19 19 19 19 19 19 19 19 19 19 19 19 19 20 20 20 20 20 20 20 20 21 21 21 21 21 21 21 21 21 21 22 22 23 23 23
21 21 21 21 21 21 21 20 19 19 19 20 20 20 19 19 19 19 19 19 19 19 19 19 19 20 20 20 20 20 19 20 20 20 19 19 19 20 21 21 21 21 22 22
21 21 21 21 22 22 22 21 21 21 21 20 20 20 19 19 19 19 18 18 18 18 18 18 18 18 18 18 19 19 18 18 18 18 18 18 18 19 19 19 19 20 20 21
21 21 22 21 21 22 22 22 21 21 21 20 20 19 19 19 19 18 18 18 18 18 18 17 17 17 17 17 17 17 18 18 17 17 17 18 18 18 18 18 18 19 19 19
22 21 22 22 22 22 22 21 21 21 21 20 19 18 18 18 18 17 17 17 18 18 17 17 16 16 16 16 16 15 16 16 16 17 16 16 16 16 16 16 17 17 17 17
22 21 21 21 21 21 21 20 20 19 18 18 17 16 16 17 17 17 17 17 17 17 17 16 16 16 16 16 15 15 15 15 15 15 15 15 15 14 15 15 15 14 14 15
22 22 21 20 19 19 19 19 18 18 17 17 16 15 15 15 16 16 17 17 17 17 17 17 17 16 16 16 15 15 15 15 14 14 14 14 14 14 14 14 13 13 13 13
22 22 20 19 18 18 18 18 18 17 17 16 15 15 15 15 15 16 16 16 16 16 16 16 16 16 15 15 15 14 14 14 14 14 14 14 13 13 13 13 13 13 13 13
21 20 20 19 18 18 18 17 17 17 16 15 15 16 16 16 17 17 17 17 17 16 16 16 16 15 15 15 14 14 14 14 14 14 13 13 13 13 13 12 12 12 12 11
Wind_Direction
279 280 281 281 280 278 278 280 281 281 282 283 282 279 275 270 263 259 258 258 257 255 253 249 248 246 246 246 244 244 246 247 248 249 249 249 250 251 252 253 255 257 259 261
277 279 281 282 282 279 279 281 282 280 280 281 281 280 276 271 265 263 261 259 258 257 255 251 251 250 249 248 247 247 247 248 249 250 250 250 250 250 252 254 256 257 258 260
278 279 281 282 284 282 281 282 281 280 281 280 279 277 275 270 265 262 262 260 258 257 256 253 252 254 253 251 251 251 249 249 250 250 250 250 251 252 253 254 255 256 258 259
282 282 282 286 285 284 285 285 282 279 279 278 278 276 274 273 269 264 263 263 262 259 257 255 254 256 253 250 251 251 250 249 249 250 250 251 253 253 254 255 257 258 258 259
283 285 285 286 287 287 287 285 283 280 279 277 276 276 272 271 271 267 265 262 261 262 261 259 257 256 253 250 250 250 251 251 250 250 251 253 255 254 255 257 258 259 259 261
283 286 287 288 288 287 287 287 284 282 280 279 279 277 272 269 268 266 266 266 263 261 263 263 260 258 255 251 251 251 253 253 253 253 254 256 256 256 258 259 260 262 264 266
283 286 288 289 289 288 287 287 286 284 281 279 278 278 275 271 268 266 267 268 266 264 265 265 262 260 259 256 254 255 255 256 257 257 258 259 259 259 260 262 263 264 266 267
284 286 288 289 288 286 286 285 284 284 282 280 278 277 277 274 271 269 271 271 270 269 269 268 265 262 260 259 257 257 257 258 259 261 262 262 262 261 262 264 265 266 267 267
284 286 287 287 287 287 286 285 284 283 282 281 280 278 278 275 270 270 272 272 271 270 270 270 269 266 262 259 257 257 258 259 261 264 265 265 265 265 264 265 266 267 266 266
283 284 285 286 287 288 287 286 284 284 284 283 282 279 277 276 272 271 271 271 270 271 271 270 269 267 265 263 262 262 262 263 265 266 267 267 267 266 266 266 267 267 267 266
283 284 284 284 286 287 287 286 285 284 285 285 283 282 279 278 274 273 273 272 271 270 270 270 269 267 266 265 265 266 267 268 269 269 268 267 265 265 265 265 266 266 266 266
284 284 285 284 285 285 285 285 286 286 285 285 284 282 280 278 275 274 273 273 272 271 270 268 269 270 269 269 270 271 270 270 272 271 269 267 266 266 265 265 265 265 266 265
283 284 285 284 283 284 284 284 285 285 286 285 284 283 280 277 274 273 273 272 271 270 270 270 270 271 272 274 274 274 275 274 274 273 271 268 267 266 266 265 266 266 264 261
285 285 286 285 283 282 283 285 285 284 284 285 284 283 279 275 272 273 274 274 272 271 271 271 271 273 273 274 275 275 276 275 275 274 272 269 266 266 266 265 265 264 261 259
288 286 285 286 284 284 285 286 287 286 285 285 284 283 279 275 274 275 274 273 272 273 273 273 273 274 274 274 275 275 274 273 273 273 271 269 267 267 266 265 264 262 259 258
291 290 286 285 285 286 287 289 290 287 284 284 285 282 279 277 276 277 275 272 273 273 274 275 275 275 274 274 273 271 271 271 272 272 271 271 269 267 266 264 262 260 258 257
291 291 288 285 285 286 288 289 289 287 284 283 284 284 281 279 279 278 277 276 275 276 277 277 278 277 276 274 271 271 272 273 273 272 271 271 269 265 263 261 260 258 257 256
290 290 288 286 286 288 290 290 289 287 286 285 285 284 283 280 279 278 278 280 281 280 279 280 281 278 274 273 272 273 274 273 273 272 271 271 267 264 262 261 260 259 258 258
291 289 286 287 288 288 289 289 287 286 286 286 284 284 284 282 281 281 283 283 283 283 283 283 281 279 276 274 272 273 274 274 273 273 271 269 266 265 263 261 261 260 259 259
289 289 286 285 287 287 287 285 284 284 284 285 284 283 282 281 282 283 284 285 285 284 284 283 282 279 276 274 273 273 273 272 273 273 271 270 269 266 264 262 262 261 260 261
288 288 288 286 286 286 284 283 283 282 282 283 283 281 280 280 282 284 285 285 284 284 284 283 283 281 279 278 277 273 271 270 270 270 270 271 271 269 265 262 261 260 260 261
289 289 288 288 286 286 284 282 281 281 281 282 281 279 278 279 281 282 283 284 284 284 283 280 280 280 281 281 280 275 272 269 267 268 269 269 269 270 266 263 262 260 260 261
288 289 288 287 286 285 283 282 281 281 280 281 279 278 278 278 279 280 283 285 287 286 283 280 279 279 278 279 278 277 273 269 268 268 268 268 267 267 264 261 259 259 260 262
288 288 288 287 286 284 282 280 280 279 280 280 277 275 275 276 278 281 284 287 287 285 282 279 278 277 277 277 276 276 275 273 272 269 267 266 265 264 262 260 259 260 262 263
287 288 288 286 283 281 280 278 277 276 277 277 276 276 277 279 281 283 285 286 286 284 280 277 276 276 276 276 275 273 273 273 272 270 269 267 265 263 260 257 255 257 260 264
285 285 284 284 282 281 280 279 277 276 275 274 275 277 279 281 283 285 287 288 288 284 281 278 276 275 275 275 274 272 270 270 271 270 269 266 263 261 259 255 254 256 260 264
283 282 280 279 279 279 278 277 276 275 274 273 274 276 278 280 282 285 286 287 286 284 282 280 278 274 273 273 273 271 270 269 268 268 267 263 259 258 257 256 257 258 260 262
Height
5569 5567 5566 5565 5564 5563 5561 5560 5558 5557 5556 5556 5553 5552 5552 5551 5551 5552 5552 5552 5553 5553 5555 5556 5558 5559 5561 5564 5567 5570 5573 5576 5580 5583 5586 5589 5593 5596 5599 5602 5605 5608 5610 5612
5564 5563 5561 5560 5560 5558 5556 5555 5553 5552 5552 5550 5548 5547 5547 5546 5546 5546 5547 5547 5547 5548 5549 5550 5551 5553 5555 5557 5559 5561 5565 5568 5571 5574 5577 5580 5583 5586 5589 5592 5595 5597 5599 5601
5559 5558 5556 5556 5556 5554 5552 5550 5549 5547 5547 5545 5544 5542 5542 5541 5541 5541 5541 5542 5542 5542 5543 5544 5544 5545 5547 5550 5552 5554 5557 5559 5562 5565 5568 5571 5574 5577 5580 5582 5585 5587 5589 5591
5553 5553 5552 5554 5550 5548 5547 5546 5543 5542 5541 5540 5539 5538 5537 5536 5535 5536 5536 5536 5536 5536 5536 5537 5538 5539 5540 5542 5544 5547 5549 5552 5554 5557 5559 5563 5565 5568 5570 5573 5575 5577 5579 5580
5548 5546 5547 5548 5545 5543 5542 5541 5539 5537 5536 5535 5534 5533 5532 5531 5530 5530 5530 5530 5530 5530 5530 5530 5530 5532 5533 5535 5537 5539 5541 5544 5546 5548 5551 5554 5556 5559 5561 5563 5565 5566 5568 5569
5542 5541 5541 5543 5540 5537 5537 5536 5534 5532 5530 5529 5528 5528 5528 5527 5525 5525 5524 5524 5524 5524 5524 5524 5524 5524 5526 5528 5529 5532 5534 5536 5538 5540 5542 5544 5547 5549 5551 5552 5554 5555 5556 5558
5537 5536 5536 5536 5534 5533 5532 5531 5529 5527 5525 5524 5523 5522 5521 5520 5520 5519 5518 5518 5517 5517 5517 5517 5516 5517 5518 5520 5522 5524 5526 5527 5529 5531 5533 5535 5537 5539 5540 5541 5543 5544 5545 5546
5532 5531 5533 5530 5528 5527 5526 5524 5522 5521 5519 5518 5517 5515 5514 5513 5513 5512 5512 5511 5510 5510 5510 5510 5509 5510 5511 5513 5514 5516 5517 5519 5520 5522 5523 5524 5526 5528 5529 5530 5532 5533 5534 5535
5528 5528 5526 5523 5522 5520 5518 5517 5516 5514 5513 5511 5510 5509 5508 5507 5506 5506 5505 5504 5504 5503 5503 5503 5503 5503 5504 5505 5506 5508 5509 5510 5511 5512 5513 5514 5516 5517 5518 5520 5521 5522 5523 5524
5521 5521 5519 5517 5516 5514 5512 5510 5509 5507 5506 5504 5503 5502 5501 5500 5499 5499 5498 5497 5497 5497 5497 5497 5497 5496 5497 5498 5499 5500 5501 5502 5502 5503 5504 5505 5505 5507 5508 5509 5510 5511 5512 5513
5515 5514 5513 5511 5509 5508 5506 5504 5502 5500 5499 5497 5496 5494 5493 5492 5492 5491 5490 5490 5489 5489 5489 5490 5490 5490 5490 5491 5491 5492 5493 5493 5493 5494 5494 5495 5495 5496 5498 5499 5500 5501 5502 5503
5508 5507 5505 5504 5502 5500 5499 5497 5495 5494 5492 5490 5489 5487 5486 5485 5484 5484 5483 5482 5482 5482 5482 5482 5483 5483 5483 5483 5483 5484 5484 5484 5484 5484 5484 5484 5485 5486 5487 5488 5489 5490 5491 5493
5501 5500 5498 5496 5495 5493 5492 5490 5489 5487 5485 5484 5482 5480 5479 5478 5477 5476 5476 5476 5475 5475 5475 5475 5475 5475 5476 5476 5475 5475 5475 5475 5474 5474 5474 5475 5475 5476 5478 5479 5479 5480 5482 5483
5494 5493 5491 5489 5488 5486 5485 5483 5482 5480 5479 5477 5475 5474 5472 5471 5471 5470 5470 5469 5469 5469 5468 5468 5468 5468 5468 5467 5467 5467 5466 5466 5466 5466 5466 5466 5467 5468 5469 5470 5471 5471 5473 5474
5487 5486 5484 5482 5481 5480 5478 5477 5475 5473 5472 5470 5468 5467 5466 5465 5464 5464 5463 5463 5463 5463 5462 5461 5461 5461 5460 5459 5459 5459 5459 5459 5459 5459 5459 5459 5460 5460 5461 5462 5463 5464 5465 5466
5480 5478 5477 5476 5474 5473 5472 5470 5469 5467 5465 5464 5462 5461 5460 5459 5458 5458 5457 5457 5457 5457 5456 5455 5455 5454 5453 5452 5452 5452 5452 5451 5452 5452 5452 5452 5452 5452 5453 5454 5455 5456 5458 5459
5473 5472 5470 5469 5468 5467 5465 5464 5462 5460 5459 5458 5457 5455 5455 5454 5453 5453 5452 5452 5451 5451 5449 5449 5448 5447 5446 5445 5445 5445 5445 5445 5445 5445 5445 5444 5445 5445 5445 5446 5448 5449 5451 5452
5467 5465 5463 5462 5461 5460 5459 5457 5456 5454 5453 5452 5451 5450 5449 5449 5448 5447 5447 5446 5445 5444 5443 5442 5441 5440 5439 5439 5438 5438 5438 5438 5438 5438 5438 5438 5438 5438 5439 5440 5441 5442 5444 5445
5460 5459 5457 5456 5455 5454 5452 5451 5450 5449 5448 5447 5446 5445 5444 5443 5443 5442 5441 5441 5440 5439 5437 5436 5435 5434 5433 5432 5432 5432 5432 5431 5431 5431 5431 5431 5431 5432 5433 5434 5434 5435 5437 5438
5454 5452 5451 5450 5448 5447 5446 5445 5444 5443 5442 5441 5440 5439 5439 5438 5437 5436 5436 5435 5433 5432 5431 5430 5429 5428 5427 5427 5426 5426 5426 5426 5426 5425 5425 5425 5425 5425 5426 5427 5428 5429 5430 5431
5448 5446 5445 5443 5442 5441 5440 5438 5438 5437 5436 5435 5434 5433 5433 5432 5432 5431 5430 5429 5428 5427 5426 5425 5424 5423 5422 5421 5421 5421 5421 5420 5420 5420 5420 5420 5420 5420 5420 5420 5421 5422 5423 5424
5441 5440 5438 5437 5435 5434 5433 5432 5431 5431 5430 5429 5428 5427 5427 5426 5426 5425 5424 5423 5423 5422 5421 5420 5419 5418 5417 5416 5415 5415 5415 5415 5415 5415 5414 5414 5414 5414 5414 5415 5415 5416 5417 5418
5434 5433 5431 5430 5429 5427 5426 5425 5425 5424 5423 5423 5422 5421 5421 5420 5420 5419 5419 5418 5417 5416 5415 5414 5413 5413 5412 5411 5411 5410 5410 5409 5409 5409 5409 5409 5409 5409 5409 5410 5410 5411 5411 5412
5427 5426 5424 5423 5422 5421 5420 5419 5418 5418 5417 5417 5416 5415 5415 5415 5414 5414 5413 5412 5411 5410 5409 5409 5408 5407 5407 5406 5406 5405 5405 5404 5404 5404 5404 5404 5404 5404 5404 5405 5405 5406 5406 5407
5420 5419 5418 5417 5416 5415 5414 5413 5413 5412 5411 5411 5410 5410 5409 5409 5409 5408 5407 5407 5406 5405 5404 5403 5403 5402 5402 5401 5401 5400 5400 5400 5399 5399 5399 5399 5399 5399 5400 5400 5401 5402 5402 5403
5414 5412 5411 5410 5410 5409 5408 5408 5407 5406 5406 5405 5405 5405 5404 5404 5403 5403 5402 5401 5400 5400 5399 5398 5398 5397 5396 5396 5396 5395 5395 5395 5395 5395 5395 5395 5395 5395 5396 5396 5397 5398 5398 5399
5407 5406 5405 5404 5404 5403 5402 5402 5401 5401 5400 5400 5400 5399 5399 5399 5398 5398 5397 5396 5395 5395 5394 5393 5392 5392 5391 5391 5391 5391 5390 5390 5390 5390 5390 5390 5390 5391 5392 5392 5393 5394 5394 5395